(355564) = 2008 CN41

Discovered at Kitt Peak on 2008-02-02 by Spacewatch.

Orbit

Orbit type: Main Belt

Note: WebGL enabled browser required.

epoch2024-03-31.0
epoch JD2460400.5
perihelion date2019-10-10.07328
perihelion JD2458766.57328
argument of perihelion (°)234.43659
ascending node (°)330.91582
inclination (°)26.38117
eccentricity0.1129203
perihelion distance (AU)2.7644288
Tisserand w.r.t. Jupiter3.0
ΔV w.r.t. Earth (km/sec)13.3
semimajor axis (AU)3.1163254
mean anomaly (°)292.73336
mean daily motion (°/day)0.17915940
aphelion distance (AU)3.468
period (years)5.5
P-vector [x]-0.86251091
P-vector [y]-0.18114627
P-vector [z]-0.47250499
Q-vector [x]0.45762717
Q-vector [y]-0.67775864
Q-vector [z]-0.57551768
absolute magnitude15.67
phase slope0.15
uncertainty0
referenceMPEC 2024-D45
observations used285
oppositions10
arc length (days)8893
first opposition used1999
last opposition used2024
residual rms (arc-secs)0.73
perturbers coarse indicatorM-v
perturbers precise indicator003Ek
first observation date used1999-10-13.0
last observation date used2024-02-17.0
computer nameMPCLINUX
Minimum Orbit Intersection Distances (in AU)
for orbit epoch: 2460400.5, reference: E2024-GH2
Mercury2.37637
Venus2.10726
Earth1.83258
Mars1.20446
Jupiter1.68998
Saturn6.17133
Uranus15.5625
Neptune26.5786

Observations

290 total observations over interval: 1999 10 13.211870 – 2024 02 17.147626
These data are available for download (format description).

Date (UT) J2000 RA J2000 Dec Magn Location Ref
1999 10 13.211870 22 13 25.429 -00 31 02.75 21.20 V 645 – Apache Point-Sloan Digital Sky Survey MPS 367111
1999 10 13.215342 22 13 25.335 -00 31 02.65 21.82   645 – Apache Point-Sloan Digital Sky Survey MPS 367111
2008 01 09.47801 11 17 44.41 +04 33 37.4 20.5 V G96 – Mt. Lemmon Survey MPS 239637
2008 01 09.48352 11 17 44.34 +04 33 35.3 20.5 V G96 – Mt. Lemmon Survey MPS 239637
2008 01 09.48909 11 17 44.26 +04 33 33.0 20.8 V G96 – Mt. Lemmon Survey MPS 239637
2008 01 09.49460 11 17 44.19 +04 33 31.2 20.7 V G96 – Mt. Lemmon Survey MPS 239637
2008 02 02.35476 11 07 02.00 +02 13 54.9 20.0 V 691 – Steward Observatory, Kitt Peak-Spacewatch MPS 237718
2008 02 02.37236 11 07 01.17 +02 13 49.6 19.9 V 691 – Steward Observatory, Kitt Peak-Spacewatch MPS 237718
2008 02 02.38997 11 07 00.37 +02 13 44.9 20.0 V 691 – Steward Observatory, Kitt Peak-Spacewatch MPS 237718
2008 02 03.34054 11 06 16.99 +02 09 09.1 19.1   704 – Lincoln Laboratory ETS, New Mexico MPS 240869
2008 02 03.35346 11 06 16.39 +02 09 06.4 19.8   704 – Lincoln Laboratory ETS, New Mexico MPS 240869
2008 02 03.36581 11 06 15.81 +02 09 01.3 20.1   704 – Lincoln Laboratory ETS, New Mexico MPS 240869
2008 02 03.37816 11 06 15.21 +02 09 00.2 19.7   704 – Lincoln Laboratory ETS, New Mexico MPS 240869
2008 02 09.33654 11 01 15.81 +01 42 09.4 19.9 V 691 – Steward Observatory, Kitt Peak-Spacewatch MPS 237718
2008 02 09.35416 11 01 14.85 +01 42 05.0 19.9 V 691 – Steward Observatory, Kitt Peak-Spacewatch MPS 237718
2008 02 09.37177 11 01 13.89 +01 42 00.4 20.0 V 691 – Steward Observatory, Kitt Peak-Spacewatch MPS 237718
2008 02 09.40088 11 01 12.25 +01 41 54.2 19.6 V 703 – Catalina Sky Survey MPS 239637
2008 02 09.40891 11 01 11.78 +01 41 51.0 20.5 V 703 – Catalina Sky Survey MPS 239637
2008 02 09.41699 11 01 11.28 +01 41 49.1 20.2 V 703 – Catalina Sky Survey MPS 239637
2008 02 09.42505 11 01 10.88 +01 41 47.6 19.8 V 703 – Catalina Sky Survey MPS 239637
2008 02 10.33419 11 00 21.49 +01 37 57.3 19.2   704 – Lincoln Laboratory ETS, New Mexico MPS 237718
2008 02 10.34629 11 00 20.75 +01 37 55.9 19.6   704 – Lincoln Laboratory ETS, New Mexico MPS 237718
2008 02 10.35838 11 00 20.05 +01 37 51.8 20.0   704 – Lincoln Laboratory ETS, New Mexico MPS 237718
2008 02 10.37048 11 00 19.43 +01 37 47.9 20.0   704 – Lincoln Laboratory ETS, New Mexico MPS 237718
2008 02 10.38259 11 00 18.70 +01 37 47.0 19.6   704 – Lincoln Laboratory ETS, New Mexico MPS 237718
2008 02 13.33422 10 57 31.36 +01 25 53.8 20.8 V 691 – Steward Observatory, Kitt Peak-Spacewatch MPS 237718
2008 02 13.34950 10 57 30.44 +01 25 49.6 19.8 V 691 – Steward Observatory, Kitt Peak-Spacewatch MPS 237718
2008 02 13.36477 10 57 29.52 +01 25 46.0 19.7 V 691 – Steward Observatory, Kitt Peak-Spacewatch MPS 237718
2008 03 02.30366 10 38 21.22 +00 28 24.1 20.0   704 – Lincoln Laboratory ETS, New Mexico MPS 240869
2008 03 02.31505 10 38 20.40 +00 28 22.1 19.7   704 – Lincoln Laboratory ETS, New Mexico MPS 240869
2008 03 02.32646 10 38 19.60 +00 28 21.5 19.6   704 – Lincoln Laboratory ETS, New Mexico MPS 240869
2008 03 08.28972 10 31 46.92 +00 14 04.2 19.9 V 703 – Catalina Sky Survey MPS 242261
2008 03 08.29625 10 31 46.38 +00 14 01.8 20.2 V 703 – Catalina Sky Survey MPS 242261
2008 03 08.30278 10 31 45.98 +00 14 01.7 20.1 V 703 – Catalina Sky Survey MPS 242261
2008 03 08.30931 10 31 45.58 +00 14 01.9 19.8 V 703 – Catalina Sky Survey MPS 242261
2008 03 09.29060 10 30 42.40 +00 11 50.3 19.5   704 – Lincoln Laboratory ETS, New Mexico MPS 242261
2008 03 09.30155 10 30 41.67 +00 11 48.4 20.0   704 – Lincoln Laboratory ETS, New Mexico MPS 242261
2008 03 09.32338 10 30 40.23 +00 11 46.7 19.7   704 – Lincoln Laboratory ETS, New Mexico MPS 242261
2008 03 09.33714 10 30 39.26 +00 11 44.2 19.5   704 – Lincoln Laboratory ETS, New Mexico MPS 242261
2008 03 09.34828 10 30 38.55 +00 11 42.0 19.7   704 – Lincoln Laboratory ETS, New Mexico MPS 242261
2008 03 09.35961 10 30 37.84 +00 11 40.3 19.9   704 – Lincoln Laboratory ETS, New Mexico MPS 242261
2008 03 09.37071 10 30 37.13 +00 11 39.6 19.6   704 – Lincoln Laboratory ETS, New Mexico MPS 242261
2008 03 11.28578 10 28 35.43 +00 07 31.1 19.5 V G96 – Mt. Lemmon Survey MPS 242261
2008 03 11.29403 10 28 34.93 +00 07 30.4 19.6 V G96 – Mt. Lemmon Survey MPS 242261
2008 03 11.30241 10 28 34.39 +00 07 29.2 19.6 V G96 – Mt. Lemmon Survey MPS 242261
2008 03 11.31072 10 28 33.85 +00 07 28.1 19.6 V G96 – Mt. Lemmon Survey MPS 242261
2008 03 12.34990 10 27 28.76 +00 05 16.8 19.5 V 703 – Catalina Sky Survey MPS 243597
2008 03 12.35491 10 27 28.36 +00 05 15.6 19.6 V 703 – Catalina Sky Survey MPS 243597
2008 03 12.36102 10 27 27.97 +00 05 15.9 19.7 V 703 – Catalina Sky Survey MPS 243597
2008 03 12.36780 10 27 27.54 +00 05 14.5 19.9 V 703 – Catalina Sky Survey MPS 243597
2008 03 13.25259 10 26 33.08 +00 03 24.9   291 – LPL/Spacewatch II MPS 243597
2008 03 13.25673 10 26 32.82 +00 03 24.3   291 – LPL/Spacewatch II MPS 243597
2008 03 13.26080 10 26 32.56 +00 03 23.8   291 – LPL/Spacewatch II MPS 243597
2010 06 07.661104 23 11 34.661 -07 00 49.68   C51 – WISE MPS 904166
2010 06 07.793409 23 11 37.862 -06 59 55.10   C51 – WISE MPS 904166
2010 06 07.925712 23 11 41.11 -06 58 59.2   C51 – WISE MPS 331963
2010 06 08.058016 23 11 44.24 -06 58 06.6   C51 – WISE MPS 331963
2010 06 08.124231 23 11 45.78 -06 57 36.9   C51 – WISE MPS 331963
2010 06 08.190319 23 11 47.40 -06 57 10.8   C51 – WISE MPS 331963
2010 06 08.256535 23 11 48.97 -06 56 42.8   C51 – WISE MPS 331963
2010 06 08.653319 23 11 58.29 -06 53 58.6   C51 – WISE MPS 331963
2010 06 08.785623 23 12 01.48 -06 53 04.0   C51 – WISE MPS 331963
2010 08 06.40383 23 02 44.13 -02 15 22.8 19.8 Y W91 – VHS-VISTA, Cerro Paranal MPS 678732
2010 08 06.40519 23 02 44.06 -02 15 22.6 20.2 Y W91 – VHS-VISTA, Cerro Paranal MPS 678732
2010 08 06.40820 23 02 43.93 -02 15 22.1 19.4 J W91 – VHS-VISTA, Cerro Paranal MPS 678732
2010 08 06.40957 23 02 43.87 -02 15 22.0 19.5 J W91 – VHS-VISTA, Cerro Paranal MPS 678732
2010 08 06.41759 23 02 43.51 -02 15 20.8 19.3 H W91 – VHS-VISTA, Cerro Paranal MPS 678732
2010 08 06.41917 23 02 43.44 -02 15 20.7 19.3 H W91 – VHS-VISTA, Cerro Paranal MPS 678732
2010 09 02.22731 22 39 07.88 -01 41 34.8 20.1 V G96 – Mt. Lemmon Survey MPS 346378
2010 09 02.23385 22 39 07.48 -01 41 34.8 20.2 V G96 – Mt. Lemmon Survey MPS 346378
2010 09 02.24045 22 39 07.12 -01 41 34.2 20.0 V G96 – Mt. Lemmon Survey MPS 346378
2010 09 02.24704 22 39 06.69 -01 41 34.4 20.2 V G96 – Mt. Lemmon Survey MPS 346378
2010 09 15.30072 22 27 03.02 -01 38 50.9 20.6 V G96 – Mt. Lemmon Survey MPS 348066
2010 09 15.30915 22 27 02.55 -01 38 50.8 20.5 V G96 – Mt. Lemmon Survey MPS 348066
2010 09 15.31767 22 27 02.08 -01 38 51.0 20.5 V G96 – Mt. Lemmon Survey MPS 348066
2010 09 15.32612 22 27 01.65 -01 38 51.1 20.4 V G96 – Mt. Lemmon Survey MPS 348066
2010 10 11.22897 22 09 40.68 -01 32 55.8 20.9 V G96 – Mt. Lemmon Survey MPS 351366
2010 10 11.23586 22 09 40.50 -01 32 55.2 20.8 V G96 – Mt. Lemmon Survey MPS 351366
2010 10 11.24284 22 09 40.32 -01 32 54.9 21.3 V G96 – Mt. Lemmon Survey MPS 351366
2010 10 11.24978 22 09 40.17 -01 32 54.9 21.1 V G96 – Mt. Lemmon Survey MPS 351366
2013 02 08.32203 08 01 03.775 +40 00 20.32 20.9 g F51 – Pan-STARRS 1, Haleakala MPS 453750
2013 02 08.33411 08 01 02.971 +40 00 15.67 20.9 g F51 – Pan-STARRS 1, Haleakala MPS 453750
2013 02 13.31038 07 55 56.403 +39 25 30.40 20.9 g F51 – Pan-STARRS 1, Haleakala MPS 453750
2013 02 13.32313 07 55 55.619 +39 25 24.75 20.9 g F51 – Pan-STARRS 1, Haleakala MPS 453750
2013 02 13.33646 07 55 54.842 +39 25 18.62 20.4 r F51 – Pan-STARRS 1, Haleakala MPS 453750
2013 02 13.34869 07 55 54.108 +39 25 13.24 20.4 r F51 – Pan-STARRS 1, Haleakala MPS 453750
2015 08 12.38007 20 44 58.079 -33 42 28.21 20.3 w F51 – Pan-STARRS 1, Haleakala MPS 621037
2015 08 12.38974 20 44 57.429 -33 42 25.78 20.3 w F51 – Pan-STARRS 1, Haleakala MPS 621037
2015 08 12.39942 20 44 56.787 -33 42 23.26 20.3 w F51 – Pan-STARRS 1, Haleakala MPS 621037
2015 08 12.40913 20 44 56.133 -33 42 20.78 20.3 w F51 – Pan-STARRS 1, Haleakala MPS 621037
2016 09 10.33877 00 13 31.72 +25 04 17.9 20.4 V G96 – Mt. Lemmon Survey MPS 729799
2016 09 10.34767 00 13 31.23 +25 04 19.4 20.6 V G96 – Mt. Lemmon Survey MPS 729799
2016 09 10.35149 00 13 31.04 +25 04 19.8 20.3 V G96 – Mt. Lemmon Survey MPS 729799
2016 09 10.35531 00 13 30.81 +25 04 20.2 20.5 V G96 – Mt. Lemmon Survey MPS 729799
2016 10 23.29362 23 35 31.70 +24 03 28.4 20.3 V G96 – Mt. Lemmon Survey MPS 739530
